Theta_e
315 315 316 316 317 317 317 318 318 318 318 319 319 319 320 320 321 321 321 321 321 321 321 321 321 322 322 323 324 325 325 325 325 325 326 326 326 326 327 327 327 327 326 324 323 322 322 323 323 324 325 326 326 325 323 321 320 318 318 320 323 326 328 328 327 327 327 327 327 327 327 326 326 326 326 325 323 321 320 318 316 314 310 305 303 301
315 315 315 315 316 316 316 317 317 317 317 318 318 318 318 318 318 319 320 321 321 321 321 321 321 321 322 323 323 324 324 324 324 324 324 325 325 326 326 327 327 327 327 326 324 323 322 323 323 324 324 325 324 324 322 321 320 319 318 319 322 325 328 328 327 327 327 327 326 326 326 326 326 326 326 325 323 321 320 318 315 311 307 304 302 301
314 314 314 314 315 315 316 316 316 316 317 317 317 318 318 318 318 318 318 319 320 321 321 321 321 321 322 322 323 323 322 322 322 322 323 323 324 325 326 326 327 327 327 326 325 324 323 323 324 324 324 325 324 323 322 321 320 319 318 319 322 325 327 327 327 327 327 327 326 325 325 325 325 325 325 324 323 321 319 316 313 309 306 304 303 303
312 312 313 313 314 314 315 315 315 316 316 316 317 317 317 317 318 318 318 318 318 319 320 321 321 322 322 322 322 322 321 321 320 321 321 322 322 323 324 325 326 326 326 325 325 325 324 324 325 325 325 325 325 324 322 320 319 319 318 319 322 324 327 327 327 327 327 326 326 325 324 324 324 324 325 324 322 320 318 315 311 308 305 305 305 305
310 311 311 312 313 313 313 314 314 315 315 316 316 316 316 317 317 317 317 318 318 318 319 320 320 321 321 321 321 321 321 320 319 319 319 320 320 321 323 324 325 325 324 324 324 324 324 324 324 324 325 325 325 325 323 321 320 319 318 318 320 322 325 326 327 327 327 326 325 325 324 324 324 324 324 323 322 320 316 313 311 308 306 307 307 308
308 309 310 311 311 312 312 313 313 314 314 315 315 315 316 316 316 316 316 317 317 317 318 318 319 320 320 320 321 320 320 320 319 319 319 319 319 320 320 322 322 323 323 323 323 324 324 324 324 324 324 324 324 325 324 323 321 319 318 317 318 320 323 325 326 327 326 326 325 324 324 323 323 323 323 323 321 318 314 312 310 309 309 309 309 308
306 307 308 309 310 310 311 311 312 312 313 314 314 315 315 315 315 315 316 316 316 316 317 317 318 318 319 319 319 320 320 319 319 319 319 319 319 318 318 319 320 320 321 322 322 323 323 323 323 323 323 323 324 324 324 324 323 322 320 318 318 319 321 323 324 325 326 326 325 324 323 322 322 322 322 321 319 315 312 310 310 310 310 310 309 307
304 305 306 307 308 309 310 310 311 311 311 312 313 313 314 314 315 315 315 315 316 316 316 317 317 318 318 318 318 319 319 319 319 319 319 319 319 318 318 318 318 318 319 320 322 322 323 323 323 323 323 323 324 324 324 324 324 324 323 322 322 322 322 323 323 324 324 325 325 324 323 322 321 321 321 320 317 313 310 310 310 310 310 309 307 305
301 303 304 305 306 307 308 309 310 310 310 310 311 312 312 313 314 314 314 315 315 315 315 316 316 317 317 317 318 318 318 318 318 319 319 319 319 318 318 317 317 317 317 319 320 321 322 322 323 323 323 324 324 324 324 324 324 324 324 324 324 324 323 323 322 322 323 324 325 325 323 322 320 320 320 318 316 313 310 309 309 309 308 306 304 302
299 300 302 303 303 305 306 307 308 309 309 309 310 310 311 312 312 313 313 314 314 314 314 315 315 315 316 316 317 317 317 317 318 318 318 318 318 318 318 317 316 316 316 317 318 319 320 321 322 323 323 323 324 324 324 324 324 324 324 324 324 323 323 322 322 322 322 324 325 325 324 322 320 319 319 317 315 312 310 309 308 306 305 303 301 300
296 298 299 300 301 303 304 305 306 307 308 308 309 309 310 310 311 311 312 312 313 313 314 314 314 314 315 315 315 316 316 316 317 317 317 318 318 318 317 317 316 316 315 316 316 317 318 320 321 321 322 322 323 323 323 324 324 324 324 323 323 322 322 321 321 322 323 324 325 325 324 322 320 318 317 316 314 312 309 308 306 304 302 300 299 298
295 296 297 298 300 301 302 303 304 306 307 307 308 308 309 309 310 310 310 311 311 312 312 313 313 313 313 314 314 315 315 315 316 316 316 317 317 317 317 317 316 316 316 315 316 316 317 318 319 320 320 321 321 322 322 323 323 323 322 322 321 321 321 321 322 323 324 324 325 325 324 322 319 317 315 314 312 310 308 306 305 303 302 300 299 298
294 295 295 296 298 299 300 301 303 304 305 306 307 308 308 308 309 309 309 309 310 310 311 311 312 312 313 313 313 313 314 314 315 315 316 316 316 316 317 316 316 316 316 316 315 316 316 316 317 318 318 319 320 321 321 322 322 322 321 321 321 321 321 322 323 324 324 324 325 324 323 320 317 315 313 311 310 308 307 306 304 303 302 302 301 300
295 295 295 296 297 298 299 300 301 302 303 304 305 306 307 307 307 308 308 308 309 309 310 310 310 311 312 312 312 312 313 313 314 314 315 315 315 316 316 316 316 316 316 315 316 316 316 316 316 316 317 317 318 319 320 321 322 322 322 321 321 321 322 322 323 323 324 324 324 323 321 318 315 312 311 309 308 307 306 306 305 304 304 304 303 303
296 296 296 296 297 297 298 299 300 301 302 302 303 304 305 306 307 307 307 307 308 308 308 309 309 310 310 311 311 312 312 312 312 313 314 314 315 315 315 315 315 315 315 315 315 315 316 316 316 316 316 316 316 317 317 319 320 321 322 322 321 321 321 322 322 323 323 323 322 320 317 315 313 311 310 309 308 307 307 306 306 305 305 306 306 305
295 296 296 296 296 297 297 298 299 300 300 301 302 303 303 305 305 306 307 307 307 307 307 308 308 308 309 310 311 311 311 311 311 312 312 313 314 314 314 314 314 314 315 315 315 315 315 315 316 316 316 316 315 315 316 317 318 319 321 321 321 320 320 321 321 322 322 321 320 317 315 313 311 311 310 310 310 309 309 309 308 308 308 308 308 307
294 295 296 297 297 296 296 297 297 298 299 300 301 301 302 303 304 305 306 306 306 306 306 307 307 307 307 308 309 310 310 310 310 311 311 312 313 313 313 313 313 314 314 314 314 314 314 315 315 315 315 315 315 315 315 315 316 317 318 319 319 319 319 319 320 321 321 319 318 316 314 312 312 311 311 312 312 312 311 311 310 310 310 310 309 308
293 294 295 296 296 297 297 296 297 297 298 299 300 300 301 301 302 303 304 305 305 306 306 306 306 306 306 306 307 309 309 309 309 309 310 310 311 312 312 312 313 313 313 313 313 313 314 314 314 314 315 315 315 315 315 315 315 316 316 317 317 318 318 318 319 319 319 318 317 315 314 313 313 312 312 312 312 311 311 311 311 310 310 310 309 308
292 292 294 294 295 296 297 296 296 297 297 298 299 300 300 300 301 301 302 303 304 305 305 305 306 306 306 306 306 307 308 308 308 308 308 309 310 310 311 311 312 312 312 312 313 313 313 313 313 313 314 314 314 314 314 314 314 314 315 316 316 317 317 317 318 319 319 318 317 316 315 314 313 313 312 311 311 311 310 310 310 310 310 310 309 308
291 291 292 293 294 294 295 296 296 297 298 298 299 299 300 300 300 301 301 302 303 304 304 305 305 305 305 306 305 306 307 307 307 307 307 308 309 309 310 310 310 311 311 312 312 312 312 312 312 312 313 313 313 313 313 313 313 313 313 314 315 316 316 317 317 318 318 318 317 316 315 314 313 312 311 310 310 310 310 310 309 309 309 309 309 308
289 290 290 291 292 293 294 295 295 296 297 298 298 298 299 300 300 300 301 301 302 302 303 304 304 304 305 305 305 305 305 306 306 306 306 307 308 308 309 309 310 310 311 311 311 312 312 312 312 312 312 312 312 312 312 312 312 312 312 313 314 315 316 316 317 317 318 318 317 316 314 313 312 311 310 309 309 309 309 309 309 309 309 309 309 308
288 288 289 290 291 292 292 293 293 294 295 296 297 297 298 299 299 300 300 300 301 301 301 302 302 303 303 304 304 304 305 305 305 305 305 306 307 308 308 309 309 309 310 310 311 311 311 311 311 311 311 311 311 311 310 310 310 310 311 311 313 314 315 315 316 316 317 317 316 315 313 312 310 310 309 309 309 309 309 309 309 309 309 309 309 308
287 288 288 288 289 290 290 291 291 292 293 294 296 297 297 297 298 299 300 300 300 300 300 301 301 302 303 303 303 304 304 305 305 304 304 305 306 307 307 308 308 308 309 309 310 310 310 310 310 310 310 310 310 310 310 309 309 309 309 310 311 313 314 314 315 315 316 316 315 313 312 310 309 309 309 309 309 309 309 309 309 310 310 310 309 309
288 288 288 288 288 289 290 290 291 291 292 293 295 296 296 296 297 298 299 299 300 300 300 300 300 301 302 302 303 303 304 304 304 304 304 304 305 306 306 307 308 308 308 309 309 309 310 310 310 309 309 309 309 309 309 309 309 309 309 309 310 311 312 313 314 314 314 314 313 312 310 310 309 309 309 309 309 309 309 309 310 310 310 310 309 309
288 288 288 288 288 289 289 289 290 290 291 292 294 295 295 295 295 296 297 298 299 299 299 299 299 300 300 301 302 303 304 304 304 304 304 304 304 305 306 306 307 307 307 308 308 309 309 309 309 309 309 308 308 308 308 308 308 308 308 309 309 310 311 312 313 313 313 313 312 311 310 309 309 309 309 309 309 309 309 309 309 309 309 309 309 308
287 287 287 287 287 287 288 288 288 289 289 290 292 293 294 293 294 295 296 297 298 299 299 299 299 299 299 300 301 302 303 303 304 304 304 304 304 304 305 306 306 306 306 307 307 308 308 308 308 308 308 308 307 307 307 307 307 307 308 308 308 309 310 311 312 312 312 312 311 310 310 309 309 309 309 309 309 309 309 309 309 309 309 309 308 308
287 287 287 287 287 287 287 287 287 287 288 288 290 291 292 292 293 295 296 297 298 299 299 299 299 299 299 299 300 300 301 302 303 304 304 303 303 304 304 305 305 305 305 306 307 307 307 308 308 308 308 307 307 307 307 307 307 307 307 307 308 308 309 310 311 311 311 311 310 310 309 309 308 308 308 308 308 308 308 308 308 308 308 308 307 307
287 287 287 287 287 287 287 287 287 287 288 288 289 290 291 292 293 294 295 296 297 298 299 299 299 299 299 299 299 300 300 301 302 303 303 303 303 303 303 304 305 305 305 305 305 306 306 307 307 307 307 307 306 306 306 306 306 306 306 307 307 307 308 309 309 309 309 309 309 308 308 308 308 307 307 307 307 307 307 307 307 307 307 307 307 306
288 288 288 288 288 288 288 288 288 288 289 289 290 290 292 292 293 293 294 296 297 298 298 299 299 299 299 299 299 299 300 300 301 302 302 303 303 303 303 304 304 304 304 304 304 305 306 306 306 307 307 307 307 306 306 305 306 306 306 306 306 306 307 307 307 307 307 307 307 307 307 307 306 306 306 306 306 306 306 306 306 306 306 306 306 306
288 289 289 289 289 289 289 290 290 290 290 290 291 291 292 293 293 293 293 295 296 297 298 299 299 299 299 299 299 299 299 299 300 301 301 302 302 302 302 303 304 304 303 303 303 304 305 305 306 306 307 307 307 306 305 305 305 305 305 305 305 306 306 306 306 306 306 305 305 305 305 305 305 305 305 305 305 305 305 305 305 305 305 305 305 305
289 289 289 290 290 290 290 291 291 291 292 292 292 292 293 293 293 293 293 294 295 296 298 299 299 299 299 299 299 299 299 299 300 300 301 301 301 301 302 303 303 303 303 303 303 303 303 304 305 306 306 306 306 306 305 305 304 304 305 305 305 305 305 305 305 305 305 305 305 305 305 305 305 305 305 305 305 305 305 305 305 304 304 304 304 304
289 289 289 290 290 290 291 291 291 292 292 292 293 293 293 293 293 293 293 294 295 296 297 298 299 299 299 299 299 299 299 299 299 300 300 301 301 301 302 302 302 302 302 303 302 302 302 302 303 304 305 306 306 306 305 304 304 304 304 304 304 304 304 304 304 304 304 304 304 304 304 304 304 304 304 304 304 304 304 304 304 304 304 304 304 304
289 289 289 290 290 290 291 291 291 292 292 292 292 292 293 293 293 294 294 294 295 295 296 298 298 299 299 299 299 299 299 299 299 300 300 300 300 300 301 302 302 302 302 302 302 302 302 302 302 303 304 304 305 305 305 304 303 303 303 304 304 304 304 304 304 304 304 304 304 304 304 304 304 304 304 304 304 304 304 304 304 304 303 304 304 303
289 289 289 290 290 290 291 291 291 292 292 292 292 292 292 293 293 293 294 294 294 295 295 297 298 298 299 299 299 299 299 299 299 299 299 299 300 300 300 301 301 301 301 301 302 302 301 301 301 302 302 303 304 304 304 304 303 303 303 303 303 304 304 303 303 303 303 303 303 303 303 303 303 303 303 303 303 303 303 303 303 303 303 303 303 303
289 289 290 290 290 290 291 291 291 292 292 292 292 292 292 292 292 293 293 293 294 294 295 295 296 297 298 299 299 299 299 299 299 299 299 299 299 299 299 300 300 301 301 301 301 301 301 301 301 301 301 302 303 303 303 304 303 303 302 302 303 303 303 303 303 303 303 303 303 302 302 302 302 302 302 302 302 302 302 302 302 302 302 302 302 302
289 289 290 290 290 290 291 291 291 292 292 292 292 292 292 292 292 292 293 293 293 294 294 295 295 296 297 298 299 299 299 299 299 299 299 299 299 299 299 299 300 300 300 300 301 301 301 301 301 301 301 301 302 302 302 303 303 303 302 302 302 302 302 303 303 303 303 302 302 302 302 302 302 302 301 301 301 301 301 301 301 301 302 301 301 301
289 289 289 290 290 290 290 291 291 291 292 292 292 293 293 293 293 293 293 293 293 293 294 294 295 296 297 298 298 298 299 299 299 299 299 299 299 299 299 299 299 299 300 300 300 300 300 300 300 300 301 301 301 301 302 302 302 302 302 302 302 302 302 302 302 302 302 302 302 302 302 301 301 301 301 301 301 301 301 301 301 301 301 301 301 301
289 289 289 289 290 290 290 290 290 290 291 291 292 293 293 293 293 293 293 293 293 293 293 294 294 295 296 297 297 298 298 299 299 299 299 299 299 299 299 298 298 299 299 299 299 300 300 300 299 299 300 300 300 300 301 302 302 302 302 302 302 302 302 302 301 301 301 301 301 301 301 301 301 301 301 301 301 300 300 300 300 300 300 300 300 300
289 289 289 289 289 289 289 289 289 290 290 290 291 292 292 293 293 293 293 293 293 293 293 293 293 294 294 296 297 297 298 298 299 299 299 299 299 299 299 298 298 298 298 298 299 299 299 299 299 299 299 299 299 300 300 301 301 301 301 301 301 302 302 302 302 301 301 301 301 301 301 301 301 300 300 300 300 300 300 300 300 300 299 299 299 299
289 289 289 289 289 289 289 289 289 290 290 290 291 291 292 292 292 293 293 293 293 293 293 293 293 293 294 294 295 296 297 298 298 298 299 299 299 298 298 298 298 298 298 298 299 299 299 299 299 298 298 298 298 299 299 300 301 301 301 301 301 301 301 302 302 301 301 301 301 301 301 301 300 300 300 300 300 300 300 300 300 300 300 299 299 299
290 289 289 289 289 290 290 290 290 291 291 291 291 292 292 292 292 293 293 293 293 293 293 293 293 293 293 294 294 295 296 297 298 298 298 298 298 298 298 298 298 298 298 298 298 298 298 298 298 298 298 298 298 298 299 299 300 300 300 301 301 301 301 301 301 301 301 301 301 301 301 300 300 300 300 300 300 300 300 300 300 300 300 299 299 299
291 291 290 290 291 291 291 291 292 292 292 292 292 292 292 292 292 293 293 293 293 293 293 293 293 293 293 294 294 294 295 296 297 297 298 298 298 298 298 298 298 298 298 298 298 298 298 298 298 298 298 298 298 298 298 298 299 299 300 300 300 300 301 301 301 301 301 301 301 301 300 300 300 300 300 300 300 300 300 300 300 300 300 300 299 299
291 291 291 291 291 292 292 292 292 293 292 292 292 292 292 292 293 293 292 293 293 293 293 293 293 293 294 294 294 294 295 295 296 297 297 298 298 298 298 297 297 298 298 298 298 298 298 298 298 298 298 298 298 298 297 297 298 299 299 299 299 299 299 300 300 301 301 301 300 300 300 300 300 300 300 300 300 300 300 299 299 299 299 300 300 299
289 290 290 290 290 290 290 291 291 292 292 292 292 292 292 293 293 293 293 293 293 293 293 293 293 293 294 294 294 294 294 295 295 296 297 297 297 298 298 298 298 298 298 298 298 298 298 298 298 298 298 298 298 298 297 297 298 298 299 299 298 298 298 299 299 300 300 300 300 300 300 300 300 300 299 299 299 299 299 299 299 299 299 299 299 299
288 288 288 289 289 289 289 289 290 290 290 291 291 291 292 292 293 293 294 294 293 293 293 293 293 293 293 294 294 294 294 294 295 295 296 296 297 297 297 298 298 298 298 298 298 298 298 298 297 297 297 298 298 298 297 297 297 298 298 298 298 298 298 297 298 299 299 299 299 300 300 300 299 299 299 299 298 298 298 299 299 298 299 299 299 299
287 288 288 288 288 288 288 288 288 288 289 289 290 290 291 291 292 292 293 294 294 293 293 293 293 293 293 293 294 294 294 294 294 294 295 295 296 296 297 297 297 298 298 298 298 298 298 298 297 297 297 297 297 297 297 297 297 297 297 298 298 298 297 297 297 297 298 298 298 299 299 299 299 299 298 298 298 298 298 299 299 299 298 298 298 298
287 287 287 287 287 287 287 288 288 288 288 288 288 288 289 290 290 291 292 292 293 294 294 293 293 293 293 293 293 293 294 294 294 294 294 295 295 295 296 296 297 297 297 297 297 297 297 297 297 297 297 297 297 297 297 297 297 297 297 297 297 297 297 297 297 297 297 297 297 298 298 298 298 298 298 297 298 298 298 298 298 298 298 298 298 298
287 287 287 287 287 287 287 287 287 287 288 288 288 288 288 288 289 290 290 291 292 293 294 294 294 293 293 293 293 293 294 294 294 294 294 294 294 295 295 296 296 296 297 297 297 297 297 297 297 297 297 296 296 296 296 296 296 296 296 296 297 297 297 297 297 297 296 296 296 296 297 297 297 297 297 297 297 297 298 298 298 298 298 298 297 297
287 287 287 287 287 287 287 287 287 287 287 288 288 288 288 287 288 288 289 290 291 292 293 294 294 294 293 293 293 293 293 294 294 294 294 294 294 294 295 295 295 296 296 296 296 296 297 297 297 297 297 296 296 296 296 296 296 296 295 296 296 296 297 296 296 296 296 296 295 295 295 296 296 296 296 296 296 297 297 298 298 298 298 297 297 297
287 287 287 287 287 287 287 287 287 287 287 287 287 288 288 288 288 288 289 289 290 291 293 294 294 294 294 293 293 293 293 294 294 294 294 294 294 294 294 294 295 295 296 295 295 295 296 296 296 296 296 296 296 296 295 295 295 295 295 295 295 296 296 296 296 296 296 295 295 295 295 295 295 295 295 295 295 295 296 297 297 297 297 297 297 296
287 287 287 287 287 287 287 287 287 287 287 287 287 287 287 288 288 288 288 289 290 290 291 293 294 294 294 293 293 293 293 293 293 293 293 293 293 294 294 294 294 295 295 295 295 294 294 294 294 295 296 296 296 296 296 295 295 294 294 294 295 295 295 295 296 296 296 295 295 294 294 294 294 294 294 294 294 294 294 295 296 296 296 297 296 296
Wind_Speed
18 17 17 17 17 17 17 17 17 17 18 19 21 23 27 32 38 45 51 56 60 62 61 59 57 55 54 53 51 50 50 52 55 58 58 56 54 51 49 49 51 52 54 54 53 51 49 48 48 49 50 50 50 49 48 48 48 48 47 46 46 46 47 48 50 53 56 58 59 60 60 59 57 54 51 49 47 45 43 41 39 38 36 34 33 32
19 19 18 18 18 18 18 18 18 19 19 19 20 20 21 23 25 30 35 43 50 55 58 58 57 56 55 54 52 49 49 51 54 56 58 57 55 52 50 49 50 52 54 55 56 54 52 51 50 51 51 51 50 49 48 48 49 49 49 48 47 47 48 49 50 53 56 58 59 59 59 59 57 54 51 49 48 46 44 42 40 38 36 35 33 32
20 20 19 19 19 19 19 19 19 20 20 21 21 21 21 22 22 23 24 28 34 42 49 54 56 56 55 53 49 45 45 47 50 52 53 53 53 52 51 50 51 53 53 54 55 55 54 52 52 52 52 53 52 51 49 49 49 50 50 49 48 48 49 49 50 53 55 58 59 59 59 58 57 55 52 50 48 47 44 42 40 39 37 35 33 32
22 21 21 20 20 19 20 20 20 21 21 21 22 22 22 23 23 22 22 22 23 27 33 42 48 50 50 46 41 39 40 41 44 46 47 47 47 48 49 50 51 52 51 51 51 51 50 49 49 50 51 53 53 53 52 51 50 51 51 50 50 49 49 49 50 52 54 56 58 59 59 58 57 56 54 51 49 47 45 43 41 40 37 36 34 33
23 23 22 21 21 20 20 20 20 21 21 22 22 22 23 23 23 23 23 22 21 21 22 28 33 38 40 37 34 34 34 35 38 40 42 43 43 44 45 46 47 48 48 48 47 47 47 46 47 48 49 51 53 54 54 53 52 52 53 53 52 51 51 51 51 51 52 54 57 58 59 59 59 58 56 53 51 48 46 44 42 41 39 37 35 34
25 24 24 23 23 22 21 20 20 21 21 21 22 22 22 23 23 23 23 23 23 22 22 22 24 27 29 30 30 30 30 31 32 34 36 38 40 41 42 43 43 45 46 47 47 47 47 47 48 49 50 51 52 54 55 55 55 55 55 56 55 55 54 53 52 51 51 52 55 58 59 60 60 59 58 55 52 49 47 45 44 42 40 38 36 34
26 26 25 25 25 24 22 21 21 21 21 21 21 22 22 22 22 23 23 23 23 23 23 23 23 24 25 26 27 28 28 28 29 30 32 34 36 38 40 41 42 44 46 47 47 48 49 50 51 52 52 53 54 54 55 56 56 57 58 59 59 58 57 56 54 53 52 53 54 57 59 60 60 60 58 55 52 49 47 45 44 43 41 38 36 35
25 26 26 27 27 26 24 23 22 21 21 21 21 22 22 22 22 23 23 23 23 23 23 23 24 24 25 25 26 26 27 27 27 28 29 30 32 34 36 38 40 43 45 46 48 49 50 52 53 55 56 56 57 57 57 57 57 58 60 61 61 60 58 57 55 55 55 55 56 57 59 60 61 60 58 56 52 49 47 45 44 42 40 38 37 35
24 25 26 27 27 27 27 26 24 22 21 21 21 22 22 23 23 23 23 23 23 23 23 23 24 24 24 25 25 25 26 26 27 27 28 29 30 31 32 34 37 39 42 44 46 47 49 51 53 56 58 60 61 61 60 59 58 59 59 60 60 59 57 55 54 55 56 57 58 58 60 61 62 61 59 57 54 50 47 44 42 40 39 37 36 36
23 24 25 26 27 27 28 28 26 24 22 22 22 22 22 23 23 24 24 24 24 24 23 23 24 24 25 25 25 26 26 26 27 27 28 28 29 29 30 31 33 35 38 40 42 44 46 48 50 54 57 60 62 63 62 60 59 58 57 57 55 53 52 52 53 55 57 59 60 60 61 63 64 63 61 58 55 50 46 43 41 39 38 37 36 35
23 23 24 25 26 27 27 28 27 25 24 23 23 23 23 23 23 24 25 26 26 25 24 24 24 24 25 25 26 26 26 27 27 27 28 28 28 29 29 30 31 32 34 36 38 40 41 43 45 48 51 54 56 58 58 58 57 56 55 53 51 49 49 50 52 55 58 60 61 61 63 64 65 64 61 58 54 49 45 42 40 38 37 36 35 34
23 23 23 23 24 26 27 28 27 27 26 25 24 23 23 22 22 23 24 25 26 26 25 25 25 25 25 26 26 26 27 27 27 27 28 28 28 28 29 29 30 31 32 34 36 37 38 39 39 40 40 40 42 45 48 50 52 52 51 50 48 48 49 50 53 55 58 60 61 63 65 66 66 63 59 55 50 46 43 41 40 39 39 38 37 36
24 23 23 23 24 24 24 25 26 27 27 26 26 25 23 22 22 22 23 24 24 25 25 26 26 26 26 26 26 27 27 27 27 27 28 28 28 28 28 28 29 29 30 32 34 36 37 37 36 34 31 29 30 33 38 42 46 49 50 49 49 49 50 51 52 54 57 59 62 65 67 66 64 59 54 50 46 44 42 42 41 41 41 40 40 39
23 24 24 24 23 23 22 22 23 24 25 26 26 26 25 24 23 23 23 23 23 24 24 25 26 27 27 27 27 27 27 27 27 28 28 28 28 28 27 27 27 28 28 30 32 35 37 38 37 34 31 27 26 27 31 37 42 47 50 51 51 49 48 47 48 51 55 59 63 66 66 64 59 53 48 46 44 43 43 43 43 43 43 43 42 41
22 22 23 23 23 22 21 21 21 21 22 24 25 26 26 25 25 24 23 23 23 23 24 25 26 27 28 28 27 27 27 27 27 28 28 28 28 27 27 27 27 27 27 28 30 32 34 36 38 38 36 32 29 26 27 31 37 43 48 51 51 48 44 41 42 47 53 59 63 64 63 58 53 48 45 44 43 43 44 44 44 44 44 44 43 41
21 21 21 22 23 23 22 21 21 21 22 23 24 25 25 26 26 25 24 24 23 23 23 24 25 27 28 28 28 27 27 27 27 28 28 28 28 27 27 27 27 27 26 27 27 28 30 32 35 37 38 38 35 31 27 28 31 36 42 47 48 46 41 38 39 45 52 58 61 61 57 52 47 44 43 42 42 42 43 43 44 44 44 44 42 40
21 21 21 21 22 23 23 23 23 22 22 22 23 23 24 25 25 25 25 24 24 23 24 24 24 25 26 28 28 28 27 26 27 27 28 28 28 28 27 27 27 27 27 26 26 26 27 28 30 33 35 37 37 35 31 29 28 30 34 39 41 40 37 36 39 45 52 57 58 56 51 47 44 42 41 40 40 40 41 41 42 42 42 42 42 40
22 22 22 21 22 22 22 23 23 23 23 22 22 22 23 25 25 25 25 25 24 24 24 24 24 25 25 25 27 27 26 25 25 26 27 28 28 28 27 27 27 28 27 27 26 26 26 27 28 29 31 33 35 35 34 32 30 28 29 31 33 34 34 34 38 45 51 55 55 53 49 46 44 42 41 40 39 39 39 40 40 40 40 41 42 41
25 24 22 22 21 21 22 23 23 22 22 21 21 22 22 23 24 24 24 24 24 24 24 24 25 25 25 25 26 27 26 25 25 26 26 27 27 27 27 27 27 28 28 27 27 26 26 26 27 28 28 29 31 32 34 34 32 30 29 30 32 33 34 35 38 44 50 53 54 53 51 49 46 44 42 40 39 39 38 39 39 40 40 41 42 42
27 26 25 24 23 23 23 23 22 21 21 21 21 21 20 20 21 22 24 24 24 24 24 24 25 26 26 25 26 26 26 25 25 26 26 27 27 27 27 27 27 27 27 27 27 26 26 26 27 27 27 28 28 29 30 31 32 32 31 33 34 36 37 38 40 44 49 53 55 54 53 50 47 44 42 40 38 38 38 39 39 40 41 41 42 43
30 30 30 28 25 24 25 24 22 21 20 21 21 22 22 20 20 22 24 24 24 24 24 24 25 25 24 24 25 25 24 23 24 25 26 26 27 27 27 26 26 27 27 27 27 26 26 26 26 27 27 27 27 27 27 28 29 29 31 33 36 38 39 40 42 45 49 53 56 55 52 48 45 42 40 38 37 37 37 38 39 40 41 42 43 43
32 32 31 30 28 28 28 27 25 23 22 23 23 23 22 21 21 22 23 24 25 25 25 25 25 24 24 23 24 24 23 22 22 23 24 26 27 27 27 26 26 26 26 26 26 26 26 26 26 26 26 26 26 26 26 26 26 26 28 31 35 38 40 41 43 45 48 52 55 54 49 45 42 39 37 36 35 36 36 38 39 40 41 42 43 44
32 33 33 32 32 32 31 29 28 27 25 24 24 23 23 23 22 22 22 23 25 26 26 26 26 25 25 25 25 24 23 22 22 22 23 26 27 27 27 26 26 26 26 25 25 24 25 25 25 25 25 26 26 26 25 25 25 25 26 29 33 37 40 42 44 46 49 53 54 51 46 42 39 37 35 34 34 35 36 37 38 39 40 41 43 44
30 31 32 32 33 32 30 28 28 28 26 25 25 25 25 24 24 24 23 23 24 25 25 27 27 27 27 27 26 25 24 23 22 21 22 25 27 27 26 26 26 26 26 25 24 24 24 24 24 24 25 25 26 26 26 26 26 26 27 29 32 36 39 42 45 47 50 52 51 47 43 39 37 35 34 34 34 35 37 38 39 39 39 40 41 43
29 30 31 32 32 32 31 30 29 29 28 27 26 25 25 25 25 25 24 24 24 25 26 27 27 28 28 27 27 27 26 24 22 22 23 25 26 26 26 26 26 26 26 25 24 23 23 23 23 23 24 25 26 27 27 27 27 27 28 30 33 36 39 42 45 48 50 50 48 45 41 39 37 35 35 34 35 37 38 39 39 39 39 39 39 41
31 31 31 31 32 32 33 32 32 31 30 29 28 26 26 27 26 25 24 25 25 25 26 26 27 28 27 27 28 29 28 26 24 23 24 24 25 26 27 27 26 26 26 25 24 24 23 23 23 23 24 26 28 29 29 30 29 29 29 31 33 36 38 42 46 48 49 48 46 43 41 39 37 36 35 35 36 37 38 39 39 39 38 37 37 39
34 32 32 31 31 32 33 33 33 32 32 31 30 29 28 27 26 25 26 26 25 24 25 26 28 28 27 26 27 29 28 27 25 24 24 24 25 26 27 27 26 26 26 25 25 24 23 23 23 23 24 26 28 30 31 32 32 31 31 32 34 37 39 42 45 47 46 45 43 42 40 39 37 36 35 35 35 36 37 38 38 37 36 36 37 38
35 34 33 32 31 31 32 32 32 32 32 31 30 29 27 26 26 27 28 26 24 23 25 27 27 27 26 26 25 26 27 28 27 26 24 23 25 27 27 26 26 25 26 25 25 25 24 24 23 23 24 26 28 30 32 33 33 33 32 33 34 36 39 41 42 43 42 41 40 39 38 37 36 35 35 35 35 35 36 36 35 35 35 35 36 37
33 33 32 31 31 31 30 31 31 31 31 30 29 28 27 27 28 29 29 26 24 25 27 27 27 26 25 25 24 25 27 28 28 26 24 24 26 27 27 26 25 26 26 25 25 25 26 26 25 24 24 25 27 29 32 33 34 33 33 33 34 35 37 38 39 39 38 38 37 36 35 34 34 34 35 35 35 35 34 34 34 34 34 35 36 37
29 29 28 28 28 28 28 28 28 29 29 29 28 27 27 27 29 29 28 26 25 27 28 28 27 25 25 25 25 25 26 27 28 27 24 25 27 28 27 25 26 26 25 25 25 26 27 27 27 26 25 25 26 28 31 33 34 34 33 33 33 34 35 35 36 36 36 35 35 34 33 33 33 34 35 36 36 35 35 34 33 33 34 35 36 36
28 27 26 25 25 25 24 25 25 26 26 26 26 26 26 27 28 28 28 27 27 28 29 28 27 26 25 24 24 24 23 23 25 26 24 25 27 27 26 25 26 26 25 24 24 24 25 26 28 28 27 26 26 28 30 32 33 34 35 34 34 34 34 34 34 34 34 34 33 33 33 33 33 34 35 36 36 36 35 35 34 34 35 36 36 36
28 26 26 24 24 23 23 23 23 24 23 24 24 25 25 25 26 26 27 27 28 29 29 29 28 27 27 26 26 25 22 20 22 24 23 24 24 24 24 24 25 25 25 25 25 24 23 23 25 28 27 27 27 27 29 31 33 35 36 36 36 35 35 34 34 34 34 34 34 34 34 34 34 35 35 36 36 36 35 35 35 35 36 37 37 37
28 26 25 25 24 23 23 23 23 23 23 24 25 25 24 24 24 25 26 27 28 29 30 30 29 29 28 28 28 27 24 22 22 24 24 23 23 22 22 23 24 24 25 25 25 26 25 24 25 26 27 27 27 27 28 30 32 34 36 37 37 37 37 36 36 35 35 35 35 35 35 35 35 35 35 35 35 35 35 35 35 36 37 37 38 37
27 26 26 25 24 24 23 23 23 23 24 25 25 25 25 24 25 25 25 26 28 29 31 32 31 31 30 29 29 28 26 24 25 26 26 25 24 23 22 22 23 23 24 24 25 26 27 27 27 26 26 27 27 27 27 28 31 33 36 37 38 39 39 39 38 38 38 37 37 37 37 37 36 36 35 35 34 34 34 34 35 36 37 37 38 38
25 26 25 25 24 24 23 23 23 23 24 24 25 26 26 26 25 25 25 26 27 29 31 32 33 32 31 30 29 28 27 26 26 26 26 26 25 24 22 22 23 23 23 23 24 25 26 27 28 27 27 27 28 28 27 28 29 31 34 37 39 40 40 40 40 40 40 39 39 39 39 38 37 36 35 34 34 33 34 34 35 36 37 37 38 39
25 26 26 25 24 24 24 23 23 22 23 23 24 24 25 26 25 25 25 25 26 28 29 31 32 32 32 32 31 29 27 26 25 26 26 26 25 23 22 22 22 22 22 23 24 25 25 26 27 28 28 28 28 28 28 27 28 29 32 35 37 39 40 41 41 41 41 41 41 41 40 40 39 37 36 35 34 33 34 34 35 36 36 37 38 38
26 26 26 25 24 24 23 24 23 23 23 23 23 24 24 25 25 25 24 24 25 26 28 30 31 32 32 33 32 31 29 27 27 27 28 27 25 24 23 23 22 22 22 23 24 24 24 25 26 27 28 29 29 29 28 27 27 28 30 32 35 37 39 41 42 42 43 43 43 43 42 41 40 39 38 36 35 34 34 34 35 35 36 36 37 37
27 27 27 26 25 24 25 25 25 24 24 23 23 24 24 24 24 25 24 24 24 24 25 27 29 31 32 33 33 32 31 29 29 30 31 30 29 27 26 25 24 24 24 23 23 23 23 24 25 26 27 28 28 29 29 28 27 28 28 29 31 33 36 38 40 42 43 44 44 44 43 43 42 41 40 39 37 36 36 36 35 35 35 35 36 36
27 27 26 26 25 25 26 26 26 25 24 24 24 24 24 25 25 25 25 25 24 24 24 24 26 29 31 32 33 33 32 32 32 33 33 33 33 32 30 28 27 26 26 24 23 22 23 24 24 24 24 25 25 27 27 27 27 28 28 27 28 30 32 34 36 39 41 42 43 44 44 44 43 43 42 41 40 39 39 38 37 36 36 36 36 36
27 26 26 26 25 25 26 26 26 25 25 25 24 24 24 25 26 26 26 26 25 25 24 24 24 26 28 30 32 33 33 33 33 33 34 35 35 34 33 31 30 29 28 27 25 24 24 24 24 24 23 23 23 24 26 26 26 26 26 26 27 28 29 30 31 33 36 38 40 41 42 42 42 42 42 42 42 42 42 41 39 37 37 37 36 36
27 26 26 26 25 25 25 26 25 25 25 25 24 23 23 23 24 24 25 25 25 25 25 24 24 25 26 28 30 32 32 32 32 33 34 34 34 34 33 32 31 30 29 29 28 27 26 25 24 24 23 23 23 23 24 25 25 24 24 25 27 27 27 27 28 29 31 33 35 36 38 39 40 40 41 41 42 43 43 42 41 39 38 38 38 37
26 26 25 24 24 24 24 23 22 22 22 22 22 22 22 22 22 22 22 23 23 23 23 23 23 23 25 27 29 30 31 31 32 32 33 33 33 33 33 32 31 30 30 30 29 29 28 26 25 25 24 24 23 23 24 24 24 24 24 24 24 25 25 26 27 28 28 30 31 33 35 36 37 38 39 40 41 42 42 42 41 40 39 39 39 39
26 25 24 24 24 24 24 23 22 21 20 20 20 21 21 21 22 22 22 22 22 22 22 22 22 22 23 24 26 28 29 30 31 31 32 32 32 32 32 31 31 30 30 30 30 30 29 28 27 26 26 25 24 24 24 25 25 25 24 24 24 24 26 27 27 27 27 28 30 31 33 35 36 37 38 38 39 40 40 40 39 38 38 40 40 40
29 28 27 26 26 27 28 29 29 28 26 25 24 22 21 20 20 21 22 22 22 22 21 22 22 22 22 22 23 25 26 28 30 30 31 31 32 32 32 31 31 30 30 31 31 30 29 29 28 28 27 26 25 25 25 26 26 26 25 25 24 25 26 27 27 27 27 28 29 31 32 33 34 35 36 37 37 38 38 38 37 36 36 38 39 39
31 30 28 28 28 29 30 31 32 33 33 32 31 29 25 23 21 21 22 22 22 22 22 22 22 21 22 22 22 22 22 24 27 29 30 31 31 31 31 31 32 32 32 32 32 32 31 30 29 28 27 27 27 27 27 27 27 27 27 26 25 26 26 27 27 27 27 28 29 30 31 32 33 34 35 36 36 36 36 37 36 35 34 35 36 36
27 27 27 27 27 27 29 29 29 31 33 35 36 34 32 29 27 25 24 23 23 22 22 22 22 22 22 22 21 19 19 21 23 26 28 29 30 31 31 32 32 33 33 33 33 33 32 32 31 29 29 28 28 29 28 28 28 28 28 27 26 26 26 27 28 27 27 27 27 28 29 31 32 34 34 35 35 35 36 36 36 35 34 33 34 34
25 25 25 25 25 25 26 25 25 27 29 32 35 36 35 34 32 31 29 27 25 23 23 22 22 23 23 22 20 19 19 20 20 21 24 26 28 30 31 31 32 32 33 34 34 34 34 33 32 31 29 29 29 29 29 29 29 28 28 28 27 27 27 28 28 28 27 26 26 26 28 29 31 33 34 34 35 35 35 36 36 35 35 34 34 34
24 24 24 24 24 24 24 24 23 23 24 26 28 30 32 34 34 33 33 31 28 25 24 23 23 23 23 22 21 20 20 20 20 20 21 23 25 27 29 30 30 31 32 33 34 35 34 34 34 33 32 31 30 29 29 29 29 29 28 28 28 28 28 29 29 28 27 26 26 26 26 28 30 31 33 33 34 35 35 36 36 35 35 35 35 35
25 25 24 24 23 24 24 23 23 23 23 23 23 24 26 29 31 32 32 32 29 27 25 25 24 23 22 21 21 21 21 21 20 20 20 22 24 25 27 27 28 29 31 32 34 34 35 35 35 35 35 34 32 31 30 30 29 29 28 28 28 28 28 29 29 28 27 26 26 25 26 27 28 29 30 31 32 34 35 35 36 36 36 36 36 37
27 27 26 25 24 24 24 24 24 24 24 23 23 22 23 24 26 28 29 30 30 29 27 25 24 22 21 20 20 21 21 21 20 20 20 20 22 24 25 26 26 27 28 30 32 33 34 35 36 36 36 36 35 34 32 30 29 28 28 28 28 28 28 29 29 28 27 26 26 25 25 26 26 27 27 28 29 31 32 34 35 35 36 36 37 37
30 29 28 26 25 25 25 25 24 24 24 24 24 23 23 23 23 24 25 27 29 30 29 27 25 23 21 21 22 22 22 21 20 20 20 20 21 23 24 25 25 25 26 28 30 32 32 33 34 35 37 38 37 36 35 33 31 29 28 28 29 28 28 29 29 28 27 26 26 26 26 26 26 26 26 27 27 29 30 32 33 34 35 35 36 37
Wind_Direction
285 284 282 280 279 278 277 277 277 275 273 270 266 261 257 252 249 247 247 248 250 253 256 259 260 261 262 263 265 265 263 260 258 256 254 252 250 248 247 246 246 246 244 241 239 238 239 241 243 245 247 248 248 247 246 245 245 244 242 239 238 239 240 237 231 228 228 228 228 227 228 229 230 231 230 229 227 226 225 226 227 227 226 224 223 222
283 281 281 279 278 277 276 276 275 275 274 272 270 268 266 263 259 254 250 247 246 248 250 253 255 257 259 261 263 265 264 263 261 258 256 253 250 249 249 249 251 251 250 246 242 239 239 240 242 244 246 248 248 247 245 244 245 244 242 240 239 240 240 236 231 229 230 229 228 226 226 227 229 229 229 228 226 225 224 225 225 224 222 220 219 219
286 283 281 279 278 276 275 274 272 272 272 271 270 269 268 267 266 263 259 253 247 244 244 246 249 252 254 257 260 263 264 263 262 261 258 254 250 248 249 250 251 251 250 247 244 241 241 242 243 245 247 248 248 247 245 244 243 243 242 240 239 240 239 236 233 232 232 230 228 226 226 227 228 229 229 227 226 224 223 223 222 220 219 217 217 218
291 289 285 282 279 276 274 272 270 270 269 270 270 269 268 268 267 267 265 263 256 249 243 242 243 246 250 254 259 261 261 261 261 260 258 255 252 249 248 248 248 248 247 245 243 243 243 245 247 249 250 251 250 249 246 244 243 242 241 239 238 239 240 237 235 234 233 231 228 227 226 228 229 230 229 227 225 223 222 221 219 218 216 216 216 217
294 292 290 287 284 280 276 273 271 269 268 268 268 268 269 269 268 268 267 266 264 260 253 246 243 244 247 252 256 258 259 259 259 258 257 256 254 251 248 246 244 243 242 242 243 244 246 248 250 252 253 254 253 252 249 245 242 240 239 238 237 237 239 239 239 238 236 232 229 227 227 228 229 230 230 227 224 222 220 219 217 216 215 215 216 218
296 294 292 291 289 286 282 278 275 272 270 268 267 267 268 269 269 269 269 268 266 264 261 256 250 247 248 251 254 256 257 258 258 258 258 257 256 254 251 247 243 240 239 240 242 244 247 250 251 253 254 255 255 255 252 249 244 241 239 238 237 237 238 239 241 241 239 235 230 227 225 226 227 228 228 226 222 219 218 216 215 215 215 216 217 218
295 295 294 292 291 289 287 284 281 278 275 272 269 267 266 267 268 269 269 269 268 266 264 260 257 253 251 251 253 254 257 258 259 260 260 259 257 256 253 250 247 244 242 241 241 243 245 248 250 251 253 255 256 256 255 253 249 246 243 241 240 240 239 239 240 242 243 240 234 228 225 224 224 225 225 222 219 216 214 214 214 214 215 215 216 216
294 295 295 294 293 291 289 286 285 283 280 277 274 271 268 267 267 267 268 268 268 267 266 264 261 258 256 255 255 255 257 259 260 261 262 261 260 258 255 253 251 249 247 245 243 243 244 246 248 250 252 254 255 257 256 255 253 250 248 247 245 244 242 239 239 241 244 244 239 232 226 223 222 222 221 219 216 212 211 211 211 212 213 213 213 214
293 294 294 294 294 293 291 289 287 286 284 282 278 275 273 271 269 268 267 266 266 267 267 266 265 262 260 259 257 257 257 258 259 260 261 262 261 260 258 256 254 253 251 250 248 246 246 246 248 250 251 253 254 255 256 255 254 252 251 250 249 246 243 240 239 240 244 245 242 236 229 224 222 221 219 217 214 211 209 209 209 209 210 210 210 211
294 293 293 293 292 292 291 290 288 288 287 285 282 278 276 275 273 272 270 268 266 265 265 265 264 263 262 260 259 257 257 256 256 257 258 259 261 261 260 258 256 254 253 252 251 250 249 249 249 250 251 252 252 253 254 254 253 252 251 250 248 245 242 239 239 241 244 245 244 239 233 227 222 219 218 216 213 211 208 206 206 206 206 206 207 208
298 296 295 293 292 291 290 289 289 289 288 286 284 281 278 276 275 275 273 272 270 268 265 264 263 262 262 261 259 258 256 255 255 254 255 256 258 259 260 259 257 255 253 252 252 252 251 250 249 249 249 249 250 251 251 252 252 251 249 247 245 243 241 240 240 242 243 244 243 241 236 229 222 218 215 214 212 208 205 203 203 203 203 203 203 205
299 298 297 295 294 293 292 291 290 289 288 286 285 283 282 279 277 275 273 272 272 271 269 267 264 262 261 261 260 259 257 255 254 254 254 254 256 257 258 259 258 256 254 252 251 250 250 249 246 244 244 245 247 248 250 250 250 248 246 244 242 241 241 241 242 242 243 243 242 241 236 227 219 214 212 210 207 204 201 200 200 200 200 200 201 202
298 297 297 296 295 295 294 294 293 291 289 287 286 285 285 283 280 277 275 273 272 271 271 271 268 265 263 261 261 260 259 257 255 254 253 253 254 255 257 258 258 256 255 252 250 249 248 246 243 240 237 238 241 245 247 247 246 245 243 241 239 240 241 242 243 243 243 242 241 237 231 221 214 210 208 206 202 200 199 199 199 200 200 200 201 202
297 297 297 297 296 295 295 295 295 294 291 289 287 286 285 285 284 282 280 277 275 273 272 271 270 268 266 263 262 261 261 259 257 255 253 253 253 254 256 257 257 257 255 253 251 249 247 245 243 240 237 236 238 242 244 244 243 242 241 239 239 240 241 243 243 243 242 240 235 228 220 212 208 205 204 202 199 198 198 199 200 202 202 203 203 204
295 296 295 294 294 294 294 294 294 293 291 290 289 287 286 285 284 283 283 281 279 277 275 272 271 269 268 266 263 262 262 261 261 259 257 255 254 254 255 257 257 257 257 255 253 251 249 247 245 243 242 240 240 242 245 246 246 243 241 239 239 240 241 243 243 241 238 233 225 216 209 205 204 204 203 202 201 201 202 203 204 205 206 206 206 206
291 291 290 290 290 291 291 291 291 291 290 290 290 288 287 285 283 283 283 282 282 280 278 276 274 273 271 268 266 264 264 264 263 262 260 258 256 255 255 256 257 258 257 257 256 255 253 251 248 247 245 244 243 243 244 247 249 247 243 240 238 239 240 241 240 237 232 224 215 208 204 204 205 206 206 207 207 208 209 209 210 211 211 211 211 209
287 286 285 286 287 288 289 290 290 289 290 291 290 289 287 285 284 283 282 282 282 281 280 279 279 278 276 274 271 267 266 266 266 265 263 262 260 257 256 256 257 257 257 257 257 257 257 255 253 251 248 246 244 242 241 242 245 246 244 241 239 237 237 237 235 231 224 216 209 205 206 208 210 212 212 213 214 214 214 215 215 216 217 217 215 213
282 281 282 282 283 285 287 288 289 289 291 291 291 290 289 288 286 283 281 281 281 282 281 281 279 278 278 278 276 273 270 270 269 268 266 264 263 261 258 257 257 257 257 257 257 257 257 258 257 255 252 249 246 242 240 238 239 240 242 241 239 236 234 232 230 225 219 213 209 208 211 215 217 218 217 217 216 216 216 216 217 218 219 219 218 216
280 279 279 279 280 282 283 284 286 287 288 288 290 292 292 290 287 284 281 279 279 279 280 281 279 277 276 276 275 274 274 273 272 271 269 267 266 264 261 260 259 258 257 256 256 256 256 257 258 258 257 253 249 245 241 238 236 236 237 237 236 234 232 231 228 225 220 216 213 214 217 219 220 220 218 217 216 216 216 217 217 218 219 219 218 217
279 278 276 275 277 279 279 281 283 284 285 286 287 288 287 287 287 285 282 279 278 277 277 278 278 278 278 278 277 276 275 274 273 272 271 269 267 265 263 261 261 260 258 257 256 255 255 255 256 257 258 257 254 250 245 241 238 236 235 235 234 233 231 230 229 226 223 220 218 217 218 219 219 218 217 217 216 216 217 217 218 219 219 219 219 217
276 276 276 275 275 275 276 277 278 280 281 282 283 282 281 283 284 284 283 282 280 278 277 277 278 279 280 281 279 277 275 275 274 273 272 270 267 264 263 262 261 260 259 257 256 255 255 254 255 255 256 256 256 254 251 247 242 238 236 235 234 233 232 231 229 227 225 222 220 218 217 217 217 217 217 218 218 218 218 219 220 221 222 222 221 219
275 275 275 275 275 273 273 274 274 275 275 277 277 277 277 278 279 280 282 283 283 282 281 280 279 279 278 278 276 275 275 274 273 273 273 271 267 264 262 261 260 260 259 257 256 255 255 254 254 254 254 254 254 254 253 251 247 243 238 236 235 234 233 231 230 229 227 224 220 217 216 215 216 217 218 219 220 220 221 223 224 225 226 226 224 222
275 275 276 276 275 274 274 274 274 273 272 272 272 272 272 273 273 275 278 280 282 282 282 281 279 277 274 273 272 273 273 271 270 270 270 269 267 265 263 261 260 259 258 257 257 256 254 254 253 252 252 252 252 252 252 251 248 244 241 238 235 234 233 231 230 228 226 221 218 215 214 214 216 218 220 221 222 222 223 225 226 228 229 229 228 226
276 277 277 277 276 275 274 274 274 273 271 270 270 270 271 271 270 270 272 275 277 278 280 281 280 277 274 271 271 270 269 269 268 268 267 266 266 265 264 262 261 260 259 258 257 256 255 254 252 251 251 251 250 250 249 249 247 244 240 238 235 234 232 231 230 227 223 218 215 213 214 216 219 223 225 226 225 225 224 225 226 228 230 231 230 227
275 275 276 275 275 274 273 272 271 270 268 268 268 269 270 270 269 269 268 270 271 273 277 280 280 277 275 273 271 268 266 265 266 266 265 265 266 266 264 263 262 261 260 259 257 256 255 254 252 249 248 247 247 247 246 246 245 243 239 236 235 233 232 231 229 226 222 218 215 215 217 221 225 229 231 231 229 227 225 225 226 227 229 230 229 227
275 274 274 274 274 274 273 273 272 271 269 267 266 267 268 269 269 269 268 267 267 270 274 274 273 273 273 273 271 269 266 264 263 263 264 265 266 266 265 263 262 261 261 260 257 256 256 255 252 249 246 244 243 243 243 243 242 241 239 236 235 234 233 231 228 225 221 219 218 219 223 228 232 235 235 233 231 228 227 226 227 228 229 229 229 227
279 277 276 275 274 274 274 274 273 273 272 269 268 267 266 266 267 266 264 263 264 267 269 268 268 269 270 270 271 270 269 266 263 262 262 264 265 265 265 264 263 262 261 260 258 256 255 255 253 249 245 241 240 240 240 240 239 238 237 236 234 233 232 229 226 224 222 222 223 226 230 234 237 238 237 235 232 230 228 228 229 230 230 230 229 227
282 281 279 277 276 275 274 274 274 273 272 271 269 267 264 263 261 260 258 259 261 263 263 263 263 265 266 267 267 269 271 270 265 262 261 263 263 263 263 264 263 262 261 260 258 256 254 253 252 250 246 241 238 237 237 237 237 236 234 233 232 231 230 229 227 226 226 227 230 233 236 238 240 239 238 236 233 231 230 231 231 231 231 230 229 227
284 284 283 281 280 278 277 275 274 273 272 271 269 267 262 259 256 255 255 256 257 258 259 260 261 262 263 264 266 268 270 269 266 263 262 262 261 261 261 263 263 261 260 260 258 256 253 252 250 248 246 242 238 236 235 235 235 235 234 232 231 229 229 229 228 229 229 231 232 234 236 237 238 238 238 237 235 234 234 233 233 233 231 230 229 228
282 283 283 283 282 281 280 278 275 273 272 271 269 266 262 258 255 255 253 252 251 252 255 258 259 260 261 263 265 266 266 265 265 265 263 260 259 259 260 261 261 260 258 257 257 257 255 252 249 246 245 243 240 236 234 233 233 233 233 232 231 230 229 229 229 229 230 230 231 232 233 235 236 237 238 238 238 237 237 236 235 233 231 230 229 228
279 280 280 280 280 279 278 275 273 272 271 269 267 264 261 258 256 255 252 248 245 247 251 254 257 257 258 259 260 260 261 262 265 267 264 260 259 258 259 259 259 259 257 255 253 253 254 255 252 247 244 243 240 237 234 233 232 231 231 230 229 229 229 229 229 229 229 230 230 231 232 234 235 236 238 238 239 239 239 238 236 234 231 229 228 228
278 278 278 278 277 275 274 271 269 268 267 265 264 262 259 257 256 254 251 247 243 243 246 250 253 254 255 255 255 255 257 260 265 267 265 262 261 260 260 259 259 258 257 255 252 249 248 253 254 251 247 244 242 239 235 232 231 230 229 228 227 227 227 227 228 228 229 229 230 231 232 233 234 236 237 239 239 240 239 238 236 233 230 229 228 227
277 277 276 276 275 274 272 270 268 266 265 264 263 261 260 258 256 254 252 248 244 242 242 245 248 251 252 253 253 254 255 257 260 263 265 264 263 262 262 260 259 258 257 256 254 251 247 248 251 253 251 248 244 241 237 233 231 229 228 227 226 226 225 225 225 226 227 227 228 229 231 232 233 235 237 238 239 239 238 236 234 232 229 228 227 225
275 275 275 275 274 273 272 271 270 268 266 265 264 263 262 260 258 256 253 250 245 241 238 239 243 247 249 251 253 254 254 253 255 259 262 263 262 262 262 261 260 258 256 254 253 252 250 249 249 250 251 250 248 244 240 236 232 229 228 227 226 225 224 224 224 224 225 225 226 228 229 231 233 234 236 237 237 236 235 234 232 230 229 227 226 223
273 273 273 273 272 272 271 270 270 268 267 267 266 266 265 264 262 259 255 252 248 243 239 237 239 242 246 249 251 252 253 252 254 258 261 261 260 260 261 261 260 259 256 255 253 251 250 249 249 248 248 250 249 247 243 239 235 231 229 228 227 226 225 225 225 225 225 226 226 227 229 230 232 234 236 236 235 234 233 231 230 229 228 227 226 223
270 270 270 270 270 270 269 269 268 267 267 266 266 267 269 269 267 263 258 254 250 247 243 240 238 240 243 246 249 250 251 253 255 258 260 260 259 258 259 260 261 261 259 256 254 252 250 250 250 250 249 248 248 248 245 242 238 235 232 229 228 227 227 227 227 227 227 227 227 228 230 231 233 234 236 236 234 233 231 230 229 229 228 227 226 224
267 267 267 267 267 268 267 267 266 266 266 266 266 267 269 270 270 268 264 259 255 252 248 243 240 239 241 244 247 249 251 252 254 256 257 258 258 258 259 261 263 264 262 258 255 254 253 251 251 250 249 248 247 248 247 245 242 238 235 233 230 229 229 229 229 229 229 229 229 230 232 233 234 235 236 236 234 232 230 228 228 228 228 228 227 226
263 263 264 265 265 265 266 266 265 265 265 265 265 266 267 268 268 269 268 266 263 260 256 250 245 241 240 242 245 248 249 250 252 254 255 257 258 259 260 262 265 266 264 261 258 256 254 251 248 248 248 249 249 249 249 248 245 242 240 237 235 233 232 231 231 231 231 232 232 233 234 235 236 237 237 236 234 231 228 227 226 226 227 228 229 227
260 261 262 263 263 263 264 265 265 265 265 265 264 264 264 264 264 265 266 267 268 267 265 260 254 247 243 242 243 246 248 250 252 254 256 257 259 260 261 262 263 264 265 264 262 259 256 252 248 245 245 247 249 250 251 250 248 246 244 241 239 237 235 234 233 233 233 234 234 235 236 237 237 238 238 236 234 231 228 226 224 223 223 225 227 228
257 259 260 261 262 263 264 265 266 267 268 267 266 264 262 261 261 262 263 264 266 267 267 265 260 254 249 245 243 245 247 250 252 254 256 258 259 261 262 262 262 263 263 263 262 260 258 254 251 249 247 247 248 250 252 252 250 248 246 244 241 239 237 236 235 235 235 235 235 236 237 237 238 238 238 236 235 232 230 228 225 223 221 220 221 223
255 256 259 261 262 264 265 267 267 267 267 266 264 261 259 259 259 259 260 261 263 264 265 264 261 257 253 249 246 244 245 247 250 253 255 257 259 260 261 262 262 262 261 261 261 260 259 255 253 250 249 247 247 249 252 253 252 250 247 245 244 242 241 239 237 236 236 236 236 237 237 237 237 237 237 236 235 234 233 231 229 226 223 219 218 218
256 256 257 259 260 262 262 264 263 261 259 258 257 256 256 256 256 257 258 259 259 260 261 261 261 259 256 252 249 246 245 245 246 248 251 254 256 258 259 260 261 260 260 259 259 258 258 256 254 252 250 247 245 245 248 251 253 252 249 247 246 245 243 241 239 237 237 237 237 237 237 237 237 236 236 235 234 234 234 233 231 228 225 221 219 217
261 260 259 259 259 259 259 257 257 256 255 255 255 255 256 256 257 258 258 257 257 257 257 258 258 258 258 256 254 250 248 245 244 245 247 250 253 255 257 258 259 258 258 256 255 255 255 256 255 254 253 251 247 244 243 247 251 252 249 247 244 243 242 241 239 237 237 237 237 237 237 237 237 237 236 235 234 233 232 231 230 228 226 224 221 219
259 260 260 260 260 259 259 258 259 260 262 263 264 262 261 260 260 259 258 257 255 255 254 254 255 256 256 256 256 254 251 248 246 244 244 246 248 251 253 255 255 256 256 254 252 251 252 253 254 254 252 252 250 247 244 245 248 250 250 248 244 242 242 242 241 238 237 237 237 237 237 237 237 237 236 235 234 232 230 228 227 226 226 225 222 220
258 259 259 259 259 260 260 260 260 260 261 263 264 263 263 262 262 261 260 257 255 252 250 250 251 252 253 253 254 254 253 251 249 246 244 244 245 247 249 250 251 252 252 252 251 250 250 250 251 252 253 252 251 249 245 244 246 249 251 249 246 243 241 242 241 240 238 237 236 236 236 236 237 237 236 234 233 231 229 227 225 223 223 223 221 219
257 258 258 258 258 259 259 260 260 260 259 259 259 259 259 259 260 262 262 261 256 251 248 245 245 246 248 250 251 251 251 252 251 249 246 244 243 243 244 246 247 247 248 249 249 250 250 250 250 251 252 252 251 250 248 246 247 248 250 250 247 244 241 241 241 240 238 237 236 236 236 236 236 235 233 233 232 232 230 228 226 224 223 222 219 217
255 256 256 256 257 257 258 259 260 260 259 258 257 257 256 256 256 258 261 262 261 256 248 243 241 242 244 247 248 248 248 248 248 249 249 247 245 243 242 243 244 245 245 246 246 247 248 249 249 249 249 249 248 248 249 249 249 249 249 250 248 245 242 241 240 239 238 237 236 235 235 234 234 234 233 233 232 232 231 229 228 226 225 223 220 219
253 254 254 255 255 256 257 257 258 258 258 258 258 257 256 254 253 254 257 260 262 260 251 243 239 239 241 244 246 247 247 246 246 247 250 250 248 245 243 242 242 243 244 244 244 244 245 245 246 246 247 246 245 246 247 249 249 249 249 250 249 247 244 242 241 240 238 236 235 233 233 233 233 233 233 232 232 232 232 230 229 227 226 225 223 221
253 253 253 254 254 255 255 255 255 255 256 257 258 258 257 254 251 251 252 255 258 259 254 245 239 237 239 242 246 247 248 246 245 245 248 250 250 248 246 243 242 242 242 243 243 243 243 243 244 245 245 245 244 245 246 248 249 249 249 249 249 248 246 244 243 241 239 237 234 233 231 231 232 233 234 233 232 233 233 232 230 229 228 227 226 225
254 254 254 253 253 254 254 254 254 255 256 257 258 258 257 254 251 248 248 249 252 253 253 248 242 239 240 243 246 246 246 245 244 243 244 246 248 249 247 245 242 240 240 241 241 241 241 241 242 243 245 245 245 244 244 245 247 248 248 249 249 248 247 245 244 242 239 237 235 233 231 230 230 231 233 233 233 234 235 235 234 232 231 230 229 228
255 254 254 253 252 252 253 253 253 254 255 257 259 260 259 255 251 247 245 245 246 247 248 248 247 246 245 247 246 245 243 243 242 242 243 244 246 247 247 245 242 239 238 238 237 237 237 238 239 241 242 244 244 244 243 243 244 245 246 247 248 247 246 246 245 243 240 237 235 233 232 230 229 229 230 231 232 233 235 236 237 236 234 233 232 231